Regional Weather Roundup
Issued by NWS

Home | Current Version | Previous Version | Text Only | Print | Product List | Glossary On
Versions: 1 2 3 4 5 6 7 8 9 10 11 12 13 14 15 16 17 18 19 20 21 22 23 24 25 26 27 28 29 30 31 32 33 34 35 36 37 38 39 40 41 42 43 44 45 46 47 48 49 50
000
ASUS44 KJAN 051810
RWRMS

MISSISSIPPI HOURLY WEATHER ROUNDUP
NATIONAL WEATHER SERVICE JACKSON MS
100 PM CDT THU MAY 05 2016

NOTE: "FAIR: INDICATES FEW OR NO CLOUDS BELOW 12,000 FEET WITH NO
SIGNIFICANT WEATHER AND/OR OBSTRUCTIONS TO VISIBILITY.

MSZ001>002-007>008-010>013-018>021-025>028-034>036-051900-
NORTHWEST MISSISSIPPI

CITY           SKY/WX    TMP DP  RH WIND       PRES   REMARKS
BATESVILLE     FAIR      70  38  31 N17G24    29.96F
CLEVELAND      FAIR      71  43  36 N17G24    29.97F
GREENWOOD      SUNNY     72  38  29 NW18G25   29.96F
6HR MIN TEMP:  51; 6HR MAX TEMP:  72;

GREENVILLE     SUNNY     71  42  35 NW13G23   29.98F
6HR MIN TEMP:  54; 6HR MAX TEMP:  72;

OLIVE BRANCH   MOSUNNY   66  36  32 N17G25    29.96F
OXFORD         FAIR      68  36  30 NW25G32   29.96F
TUNICA         CLEAR     68  43  40 N16G24    29.98F
WINONA         FAIR      69  42  37 W6G20     29.95F
$$

MSZ003>006-009-014>017-022>024-029>033-037>039-051900-
NORTHEAST MISSISSIPPI

CITY           SKY/WX    TMP DP  RH WIND       PRES   REMARKS
COLUMBUS AFB   MOSUNNY   71  50  47 NW23G29   29.90F
6HR MIN TEMP:  49; 6HR MAX TEMP:  71;

CORINTH        FAIR      68  36  30 NW16G29   29.90F
GOLDN TRIANGLE MOSUNNY   72  41  33 NW16G28   29.90F
STARKVILLE     FAIR      70  39  32 NW13G20   29.91F
TUPELO         SUNNY     70  35  27 NW16G24   29.91F
6HR MIN TEMP:  50; 6HR MAX TEMP:  70;

$$

MSZ040-058-051900-
CENTRAL MISSISSIPPI

CITY           SKY/WX    TMP DP  RH WIND       PRES   REMARKS
JACKSON INTL   SUNNY     72  41  32 NW9G21    29.96F
6HR MIN TEMP:  58; 6HR MAX TEMP:  72;

JACKSON HAWKNS SUNNY     71  39  31 N10G20    29.97F
6HR MIN TEMP:  58; 6HR MAX TEMP:  71;

MADISON        FAIR      70  41  35 N13       29.97F
MERIDIAN KEY   SUNNY     72  37  28 N16G22    29.93F
6HR MIN TEMP:  54; 6HR MAX TEMP:  72;

MERIDIAN NAS   SUNNY     71  34  25 NW15G29   29.93F
6HR MIN TEMP:  53; 6HR MAX TEMP:  72;

VICKSBURG TVR  SUNNY     75  43  31 N13G18    29.99F
6HR MIN TEMP:  61; 6HR MAX TEMP:  76;

VICKSBURG VKS  CLEAR     73  43  33 N9G18     29.99F
$$

MSZ059>079-051900-
SOUTH MISSISSIPPI

CITY           SKY/WX    TMP DP  RH WIND       PRES   REMARKS
BROOKHAVEN     FAIR     N/A N/A N/A NW9G18    29.97F
COLUMBIA       FAIR      73  43  33 NW10G18   29.98F
HATTIESBURG    SUNNY     74  43  32 N14G22    29.94F
6HR MIN TEMP:  58; 6HR MAX TEMP:  74;

MCCOMB         SUNNY     75  44  33 NW15G21   29.95F
6HR MIN TEMP:  59; 6HR MAX TEMP:  75;

NATCHEZ        SUNNY     73  45  35 N8        29.98F
6HR MIN TEMP:  55; 6HR MAX TEMP:  73;

PINE BELT      SUNNY     73  43  33 NW10G18   29.95F
6HR MIN TEMP:  57; 6HR MAX TEMP:  73;

$$

MSZ080>082-051900-
COASTAL MISSISSIPPI

CITY           SKY/WX    TMP DP  RH WIND       PRES   REMARKS
BAY ST LOUIS   SUNNY     75  39  27 N17       29.92F
BILOXI         SUNNY     77  49  38 NW12      29.90F
6HR MIN TEMP:  62; 6HR MAX TEMP:  77;

PASCAGOULA     SUNNY     77  49  37 N13G21    29.90F
6HR MIN TEMP:  57; 6HR MAX TEMP:  77;

GULFPORT       SUNNY     77  48  35 N13       29.90F
6HR MIN TEMP:  59; 6HR MAX TEMP:  77;

$$




USA.gov is the U.S. government's official web portal to all federal, state and local government web resources and services.